Location: Brno
(49.2000°N, 16.6330°E)
Time: 23:49:01
(UTC+02:00)

Transit 4A - Pass Details

Date: 27 July 2021
Orbit: 870 x 974 km, 66.8° (Epoch: 26 September)

Event Time Altitude Azimuth Distance (km) Brightness Sun altitude
Rises 01:31:00 0° 191° (S) 3,495 - -21.2°
Reaches altitude 10° 01:33:37 10° 185° (S) 2,546 - -21.2°
Exits shadow 01:37:30 35° 154° (SSE) 1,380 8.4 -21.1°
Maximum altitude 01:39:08 44° 115° (ESE) 1,206 8.3 -21.0°
Drops below altitude 10° 01:44:36 10° 46° (NE) 2,527 10.9 -20.9°
Sets 01:47:10 0° 40° (NE) 3,468 11.9 -20.8°
